Theta_e
311 311 309 309 307 307 307 310 308 310 309 309 309 308 306 305 302 301 301 301 301 301 302 302 305 311 311 321 323 318 318 317 317 319 321 326 325 324 325 326 327 329 330 330 331 331 331
312 311 310 308 308 308 307 308 309 309 309 309 309 308 307 306 303 302 301 301 301 302 302 305 312 314 319 319 320 320 319 320 320 320 322 324 324 324 325 325 326 327 327 329 330 330 331
314 312 311 310 309 308 307 306 308 308 308 309 309 307 307 307 304 302 301 301 301 302 305 313 316 317 317 319 318 320 319 320 320 321 322 322 323 324 324 324 325 326 327 328 328 329 331
313 314 312 310 310 309 307 306 308 308 308 308 308 308 307 306 304 302 302 302 302 306 314 315 313 320 317 317 318 317 319 320 320 321 322 323 324 324 324 325 325 327 329 329 328 332 335
312 312 313 311 310 309 307 307 308 308 309 309 308 307 306 305 304 302 302 302 307 316 316 312 316 322 321 316 316 316 318 320 321 321 322 322 323 324 324 324 325 325 327 327 330 333 334
310 312 313 312 311 309 307 307 307 308 309 309 307 305 305 304 304 302 302 309 318 318 317 317 320 319 316 317 318 320 321 321 322 323 323 323 323 323 323 323 325 325 324 327 329 331 331
310 311 311 313 311 310 308 306 306 307 308 308 306 305 305 304 303 302 308 321 324 325 323 320 320 319 317 317 319 320 321 321 323 323 323 324 323 324 324 325 324 325 325 326 331 331 331
308 309 311 311 312 310 308 307 306 306 306 306 305 305 304 304 303 302 309 326 323 324 327 324 323 317 316 319 320 319 321 321 322 322 323 324 325 325 325 325 325 325 326 325 324 325 327
307 310 309 309 312 310 308 307 306 306 306 305 305 305 304 304 303 307 321 323 319 321 328 326 320 319 317 318 318 320 322 322 322 323 323 324 324 325 324 324 324 324 324 323 324 324 325
304 309 309 308 311 310 308 307 306 305 306 305 305 305 304 304 306 318 321 321 320 326 340 324 318 319 317 318 319 321 322 322 321 323 323 323 324 324 323 323 323 322 322 322 323 324 323
303 307 309 308 310 311 308 307 307 305 306 306 305 305 305 304 311 320 324 319 324 331 341 322 320 319 318 318 321 321 322 322 321 322 322 322 323 322 322 322 322 321 322 322 323 323 325
303 305 309 307 309 311 308 307 307 306 304 305 305 304 305 308 310 321 321 321 329 338 339 322 318 316 315 319 322 321 322 323 322 322 322 322 323 322 322 322 322 322 321 322 323 324 326
302 303 307 308 308 310 308 307 306 306 304 304 305 304 305 311 317 318 319 325 335 335 325 322 319 317 317 321 321 322 321 322 322 322 323 322 321 322 321 320 321 321 322 324 326 327 327
300 304 304 308 307 310 309 307 306 306 304 303 304 304 309 309 314 315 320 329 337 318 325 321 319 318 322 322 322 321 321 321 322 323 323 324 323 322 322 321 322 324 324 327 327 327 328
299 303 303 308 307 309 309 307 306 306 305 303 304 312 314 315 308 318 324 333 319 322 323 322 319 320 321 322 322 322 322 322 323 322 323 325 323 323 322 322 323 325 323 324 326 326 327
298 303 303 306 307 308 309 306 306 305 304 303 312 316 315 319 318 321 329 327 323 324 322 322 322 321 322 322 322 322 322 323 323 322 323 327 325 323 323 323 323 323 325 325 329 332 334
298 302 303 304 308 308 309 306 305 304 304 304 313 320 323 317 321 321 324 324 321 323 322 324 323 323 324 322 321 322 322 322 322 321 322 324 322 324 323 323 325 324 326 326 324 325 326
298 300 304 305 308 308 308 306 305 304 303 305 318 322 321 319 316 316 320 317 315 320 321 323 325 323 324 323 323 323 325 325 322 324 323 325 328 326 325 323 322 322 324 323 325 325 326
297 298 303 305 307 308 307 305 305 304 303 313 319 324 319 319 317 316 316 315 321 320 321 323 324 325 324 323 324 324 326 322 322 325 328 326 323 324 324 325 324 325 322 320 321 322 324
297 299 304 304 307 308 306 305 304 304 303 309 324 320 316 318 320 317 315 314 320 318 322 322 323 324 324 324 324 325 325 323 323 321 320 327 326 325 328 331 326 323 319 317 318 320 322
297 299 302 304 307 307 306 304 304 304 303 309 324 322 314 311 314 317 315 314 319 319 321 322 323 323 323 324 324 325 324 322 321 318 324 328 326 323 321 320 319 318 318 320 320 320 324
298 299 300 304 307 306 304 304 303 303 305 311 325 323 321 322 318 315 313 314 318 318 321 322 323 322 324 325 325 326 323 323 323 323 323 324 326 323 322 320 319 319 319 320 320 320 319
298 299 301 303 306 304 303 304 303 302 307 316 320 321 324 318 318 316 316 314 317 321 323 321 323 323 328 328 327 329 329 328 324 324 324 325 326 324 324 320 319 322 321 320 320 319 319
298 298 301 301 306 304 303 303 303 302 307 311 319 322 324 318 317 316 314 313 317 320 322 324 327 327 324 322 324 325 324 323 323 323 323 324 325 324 325 321 332 325 320 321 320 318 317
299 299 300 303 306 303 303 303 302 302 307 309 316 320 327 320 316 316 315 314 318 321 322 327 325 323 324 322 324 323 323 323 322 321 320 322 323 324 334 325 322 321 319 320 322 319 317
298 299 300 304 304 302 302 303 302 303 308 311 315 317 322 323 322 317 315 316 318 324 326 324 324 325 326 321 320 325 327 320 320 321 319 319 323 324 335 332 325 323 319 321 320 323 318
298 299 300 304 304 302 302 302 301 303 308 310 314 317 322 326 323 325 319 320 317 318 322 325 325 325 327 317 319 323 322 318 319 320 319 319 322 325 326 329 326 322 321 319 325 325 319
297 299 301 304 304 302 302 301 300 303 307 309 314 317 320 325 322 322 323 325 322 318 322 328 325 323 321 319 320 323 321 320 320 321 320 321 324 325 325 328 333 321 319 322 325 321 319
297 298 300 303 303 302 302 301 299 302 306 309 316 316 318 323 322 319 319 318 320 322 328 328 324 323 321 320 325 324 321 323 321 322 321 323 326 327 329 329 325 324 325 323 321 320 319
Wind_Speed
15 12 12 13 10 11 14 13 13 14 15 16 15 15 16 16 16 17 17 17 16 16 18 19 19 19 12 8 15 10 2 1 13 15 19 16 15 15 16 17 18 19 19 16 18 12 15
18 15 13 12 11 10 12 12 12 15 16 18 15 15 15 17 16 17 17 17 17 17 18 18 18 15 6 11 5 8 6 6 11 15 17 21 16 14 16 17 16 19 18 15 14 16 16
21 18 16 12 12 11 12 12 13 14 15 13 13 14 16 18 17 17 18 17 18 17 18 19 14 7 11 18 4 2 8 10 14 17 16 21 19 15 9 15 16 19 18 17 19 19 17
21 21 18 14 13 12 11 11 12 13 15 12 12 13 16 18 18 17 18 17 17 17 18 12 9 5 8 6 16 20 13 13 13 12 18 19 13 15 15 15 20 16 16 16 19 14 13
21 22 21 17 14 13 11 11 11 12 14 12 12 14 16 18 17 17 17 16 16 15 8 5 5 8 8 4 13 14 15 18 16 15 14 14 9 12 15 16 14 15 17 23 10 4 12
21 22 22 20 17 14 12 10 10 11 12 12 13 13 17 17 16 16 16 15 13 7 6 4 12 8 10 11 9 8 11 13 13 13 13 11 11 13 14 13 15 17 19 8 11 7 10
20 23 23 22 19 15 12 11 11 12 12 12 13 14 17 17 15 13 15 6 5 5 13 10 4 12 3 4 3 10 12 13 15 12 14 15 12 14 18 18 20 15 15 10 11 14 18
20 23 22 22 20 16 13 11 11 11 12 11 13 14 18 16 13 11 12 6 7 5 8 20 17 14 10 7 6 13 16 14 15 16 17 15 16 16 17 12 8 11 15 15 16 17 4
19 22 23 23 21 18 14 12 10 10 10 10 13 15 16 14 10 9 11 6 6 7 6 10 11 12 12 12 13 14 13 16 14 16 17 17 17 7 7 8 10 11 14 15 18 15 12
25 21 22 24 23 20 15 12 10 10 10 9 13 15 13 11 5 7 6 1 6 4 5 12 8 7 11 8 8 9 16 15 12 16 16 16 16 9 5 11 10 15 14 13 11 11 13
27 20 21 23 25 21 17 13 10 10 10 9 12 14 10 7 10 4 5 5 4 3 4 15 10 7 9 12 11 9 9 10 14 13 12 15 10 13 8 13 15 16 13 8 14 14 16
22 21 19 22 25 22 19 14 10 10 10 10 12 13 9 3 6 7 6 7 3 5 5 7 8 9 14 12 10 13 10 9 9 10 11 14 4 3 8 11 8 8 13 11 15 13 13
22 23 15 21 23 23 21 16 11 9 10 10 11 12 8 8 0 6 8 3 4 6 14 9 10 14 16 12 9 10 13 12 8 6 10 13 14 9 4 10 10 9 9 9 11 11 7
26 23 20 19 21 24 22 17 12 9 10 9 10 11 7 12 3 6 3 5 7 11 9 11 15 15 11 9 10 15 13 12 13 8 11 10 11 12 7 4 10 10 11 8 15 11 6
25 22 21 16 21 23 23 18 11 10 9 7 8 6 5 6 7 3 4 7 5 3 10 10 15 14 10 13 4 7 8 7 4 8 6 7 6 8 4 3 8 5 6 6 8 11 10
22 20 22 14 21 23 23 18 12 10 7 7 3 7 9 9 6 5 5 7 2 7 2 12 12 14 10 12 7 8 10 6 4 4 5 7 1 3 6 5 4 7 4 6 3 4 5
26 17 19 20 22 24 24 19 13 10 8 5 5 4 8 10 6 4 7 7 3 1 4 4 13 9 9 14 12 11 8 6 2 4 4 7 5 6 5 1 6 5 7 7 7 7 5
24 18 18 22 23 25 25 20 15 11 8 7 5 3 10 13 6 5 9 4 4 6 5 4 7 7 2 6 6 7 12 7 2 5 1 5 5 2 8 5 5 3 8 8 5 12 9
21 22 21 22 24 26 25 21 16 13 13 6 3 4 7 9 6 9 5 5 5 6 10 4 1 5 1 5 3 5 8 6 1 3 5 6 2 6 3 2 3 5 8 8 7 5 8
21 22 16 23 27 28 25 21 17 15 12 5 4 4 4 6 8 5 10 10 7 4 4 2 5 3 5 5 1 6 8 3 5 5 4 3 2 5 2 5 9 3 6 7 5 3 6
19 20 13 16 29 28 25 22 16 15 11 4 4 5 7 8 8 8 11 12 13 6 4 7 6 10 7 6 6 8 10 9 6 3 1 3 2 4 8 6 5 6 6 9 9 8 8
23 22 16 14 24 26 24 22 16 14 12 4 3 1 3 5 10 9 5 11 13 13 9 7 8 9 9 5 2 9 10 9 5 6 3 1 2 3 3 4 5 6 6 8 6 7 7
21 19 20 14 24 26 24 23 18 16 16 7 2 3 4 1 9 9 8 9 14 9 3 4 3 6 14 14 13 13 11 10 6 6 3 2 5 3 4 3 4 2 5 7 8 9 11
19 20 17 15 29 27 24 22 18 16 19 5 8 5 3 5 9 10 14 9 9 9 5 7 10 10 5 8 9 10 9 8 5 5 2 4 5 1 4 3 2 6 2 7 9 8 8
19 21 16 16 30 26 23 21 17 15 16 5 6 4 4 5 11 9 9 9 12 4 7 11 10 9 5 5 5 5 3 3 3 1 4 5 2 2 2 3 3 6 4 7 4 9 7
20 22 17 18 28 25 23 20 15 14 13 3 6 5 4 3 6 4 11 9 9 8 6 5 4 8 3 2 2 2 1 5 5 5 5 4 5 4 2 1 3 9 10 5 1 7 7
20 17 18 17 26 25 22 19 15 15 15 6 5 4 5 3 4 8 5 7 7 8 5 5 4 2 3 3 3 3 4 1 2 4 5 6 6 6 7 3 3 10 8 4 4 5 7
18 16 19 15 28 23 21 18 15 15 13 6 5 5 5 2 5 8 10 9 1 4 6 9 5 2 3 2 3 1 2 5 3 3 8 7 5 5 7 4 3 9 6 2 9 9 10
19 16 11 14 25 24 20 17 14 15 14 7 5 3 6 3 5 8 10 9 10 7 4 4 2 9 3 4 0 3 2 2 4 4 3 4 3 1 4 6 11 12 13 11 11 11 13
Wind_Direction
259 264 268 267 273 277 279 280 292 294 293 294 296 301 301 299 295 295 297 299 302 305 306 311 313 317 331 240 254 170 55 24 181 195 224 235 240 239 252 252 262 257 265 276 294 299 307
253 256 261 268 274 280 285 280 286 290 292 290 290 296 299 299 294 293 293 295 298 301 304 306 308 307 263 255 225 159 182 154 183 200 217 238 243 244 262 268 282 289 300 280 281 290 305
251 251 254 259 272 282 284 281 285 296 296 292 292 296 299 299 296 291 288 294 294 297 301 303 301 283 261 243 220 239 214 226 209 205 227 235 253 264 269 267 266 276 282 284 277 274 255
252 248 248 253 263 275 286 278 285 294 293 298 298 301 301 302 298 289 287 291 296 299 298 294 275 216 258 238 253 251 234 232 239 241 229 258 260 260 273 277 284 277 265 265 265 317 52
253 250 245 246 255 268 277 279 281 292 287 298 301 306 304 303 298 290 289 293 295 293 286 269 178 212 254 211 226 232 227 231 218 223 232 253 279 263 252 251 258 259 258 258 304 186 130
253 249 244 241 247 259 268 272 276 287 291 298 304 308 307 303 300 295 293 295 288 254 246 232 268 214 256 236 198 211 212 234 235 213 217 220 236 239 239 252 249 248 253 292 262 34 341
261 246 246 241 240 250 260 269 274 281 287 300 305 308 308 305 301 298 309 297 208 201 228 218 246 232 133 234 254 234 224 219 243 208 218 210 234 238 241 233 242 277 294 283 163 184 217
271 248 243 242 238 242 250 262 272 279 286 299 304 308 310 309 293 284 295 255 50 340 289 221 253 234 278 287 250 227 195 199 215 229 210 237 221 244 260 276 330 304 302 300 296 290 113
277 251 240 238 237 236 241 254 268 274 286 298 303 309 314 308 290 270 233 338 331 323 260 203 221 234 230 218 235 194 193 209 208 226 234 230 240 176 330 300 288 273 270 279 281 303 310
290 261 241 234 233 230 233 244 264 274 281 297 301 310 316 304 285 249 239 325 332 320 265 157 198 212 190 222 244 247 181 208 230 226 237 250 240 277 259 275 279 284 295 314 312 295 280
263 280 235 232 229 225 227 234 255 271 276 293 298 309 312 291 307 256 55 337 320 259 243 156 139 119 180 208 136 195 203 231 229 224 246 243 239 270 249 268 277 269 288 306 293 284 288
271 275 235 231 226 224 224 229 246 268 275 284 297 306 311 263 257 289 335 327 266 228 225 156 142 182 169 215 232 148 181 251 246 239 222 269 317 280 258 271 263 307 289 279 271 261 262
282 269 272 227 225 221 222 226 239 268 274 280 291 297 278 279 354 333 324 249 210 250 141 159 173 161 182 193 195 172 188 200 201 200 216 222 243 204 234 279 261 231 263 273 260 234 248
271 261 264 219 224 220 221 223 233 259 273 276 286 291 264 234 273 297 293 218 240 211 205 151 144 179 182 156 162 182 185 193 226 272 281 223 196 191 138 256 302 296 237 256 303 311 323
256 261 257 226 220 219 218 220 228 252 266 278 290 282 238 254 216 246 246 214 213 257 127 153 164 185 198 175 150 208 231 232 152 208 312 324 119 94 53 311 270 319 259 330 306 293 277
257 258 249 245 217 216 213 216 223 242 256 265 263 221 216 177 174 203 236 253 282 350 332 184 182 194 166 180 207 201 200 58 86 4 333 341 192 121 119 247 209 278 340 307 53 328 14
249 257 248 243 218 214 210 212 218 236 237 246 239 209 141 151 168 209 225 241 242 62 337 282 221 199 190 177 201 209 165 92 358 127 303 338 260 122 189 261 33 346 33 347 336 305 311
244 258 252 233 217 212 207 210 217 224 218 217 245 213 156 157 194 202 234 254 331 180 220 266 278 201 186 148 206 189 102 55 18 331 188 56 322 309 91 60 359 21 24 355 348 328 325
244 259 245 225 216 209 206 209 215 212 206 286 229 133 165 198 211 200 208 210 251 197 200 201 218 1 172 163 151 115 88 40 16 34 13 6 271 277 191 87 54 33 3 354 334 275 284
237 247 240 224 215 207 206 209 208 217 216 240 267 145 142 211 274 259 191 207 203 288 135 203 166 193 202 144 212 148 116 85 77 81 330 326 18 340 103 164 259 46 24 360 332 296 359
240 246 251 238 200 203 204 204 205 209 204 223 243 196 165 192 227 229 186 185 187 172 226 201 173 197 179 183 164 169 122 138 134 155 115 328 105 52 66 71 50 44 46 44 48 11 59
231 238 248 222 199 200 200 200 203 198 188 243 285 330 161 177 195 208 165 194 191 181 167 176 196 195 163 161 238 144 154 151 136 169 101 333 119 111 81 87 75 75 73 84 45 65 72
229 232 238 222 199 199 197 196 194 189 181 244 120 271 291 62 170 190 185 205 201 135 11 198 260 141 79 61 43 59 59 52 87 141 107 129 157 198 145 31 35 150 44 67 76 42 21
222 226 221 221 198 199 196 195 193 191 194 333 345 318 265 177 188 193 169 189 161 146 171 59 17 117 105 99 86 72 73 84 85 49 20 156 197 144 122 131 38 88 63 63 92 87 93
215 222 223 226 196 193 194 193 193 194 195 267 310 318 311 163 190 136 178 178 107 118 125 79 41 90 130 113 117 120 134 156 176 141 222 229 151 124 100 174 147 156 172 159 175 106 52
210 208 223 203 182 186 188 188 188 188 185 266 293 298 287 257 56 177 176 161 144 142 108 91 53 32 29 196 196 119 198 221 168 163 246 224 273 163 46 167 214 104 145 77 67 130 86
196 209 222 193 182 184 184 185 187 182 184 213 296 288 285 83 30 342 119 176 163 165 133 128 139 98 348 198 193 167 236 241 202 213 172 191 201 209 135 215 81 114 113 158 227 95 77
193 208 187 186 183 178 181 182 187 182 181 207 274 281 320 47 50 25 31 39 22 186 144 128 132 154 150 237 199 95 299 175 282 137 169 178 183 195 152 200 135 122 151 278 103 100 94
201 201 175 164 170 180 178 180 184 182 182 198 272 295 278 294 89 77 66 53 49 28 346 168 75 159 155 236 284 164 164 69 245 165 2 170 77 120 38 87 94 77 95 115 110 107 98